RH
77 92 86 70 72 82 80 75 66 66 65 62 69 67 68 83 96 97 99 98 97 88 90 93 92 96 93 92 96 90 97 97 98 98 97 94 94 87 88 68 80 82 91 88 88 96 90 57 64 63 65 62 59 60
75 88 97 88 96 95 91 95 90 85 76 73 73 72 71 69 74 74 87 98 98 99 98 94 92 93 97 95 93 97 92 93 90 94 95 93 96 91 80 84 77 91 73 79 77 75 74 68 68 69 68 70 67 67
75 72 92 94 93 96 94 90 94 81 70 69 78 81 77 70 65 62 90 98 97 97 98 99 96 96 98 99 98 98 97 98 94 90 96 97 97 95 94 80 81 83 83 85 86 93 84 81 79 78 78 78 78 76
80 67 65 77 78 91 93 99 99 95 95 98 93 86 81 79 75 69 79 96 98 98 98 98 97 97 98 99 99 97 98 99 99 99 98 98 96 93 96 86 91 93 95 89 95 97 94 92 86 85 84 84 86 87
70 82 64 62 65 72 89 94 95 95 98 96 98 98 90 80 70 71 74 79 78 92 96 97 95 96 97 98 98 98 99 98 98 98 98 98 98 97 97 96 96 96 98 95 94 95 96 97 97 91 88 88 86 85
50 58 81 72 64 67 74 78 81 85 85 83 84 87 81 72 64 60 70 79 84 88 95 98 97 88 92 93 92 95 98 98 98 98 98 98 97 96 97 98 97 97 98 98 97 97 96 96 95 94 92 91 92 93
43 54 50 56 71 75 62 60 62 67 71 74 73 73 72 68 63 60 64 64 67 75 90 96 91 86 79 81 86 85 88 93 97 98 98 98 98 97 98 97 95 96 98 98 98 98 98 98 98 98 97 97 96 94
37 40 41 48 46 40 48 54 57 59 73 78 77 72 69 66 65 66 69 70 72 69 68 81 83 75 70 73 77 77 84 85 88 92 92 93 98 98 98 97 97 98 98 99 98 97 98 99 98 98 97 94 93 92
38 37 36 35 39 47 40 42 51 70 78 72 71 71 73 72 73 76 72 71 72 70 70 70 75 73 65 67 75 79 83 87 87 90 90 94 92 96 96 97 97 98 97 95 95 97 98 96 95 97 96 93 91 90
33 37 37 38 36 38 44 45 40 44 44 46 45 42 52 61 72 75 73 73 70 71 73 68 64 65 60 57 66 64 73 81 88 90 91 92 93 94 94 94 95 95 94 95 95 96 96 96 96 94 92 90 89 88
37 39 39 39 38 39 40 41 41 43 44 44 42 44 49 52 50 48 50 51 52 55 52 55 53 56 56 59 59 62 70 79 88 91 88 89 90 92 87 83 85 88 92 95 97 98 98 98 97 96 95 94 93 91
45 42 39 38 38 39 40 41 43 43 44 45 48 48 47 46 47 47 47 39 40 43 38 35 32 32 32 30 36 40 48 56 74 75 79 84 84 81 81 82 82 83 84 86 87 90 92 94 95 95 93 92 92 92
46 46 45 42 39 38 39 42 44 45 44 44 41 40 38 34 36 36 38 39 38 35 35 32 35 33 34 36 39 42 49 61 59 64 68 71 70 70 69 68 68 70 73 73 73 74 76 79 83 86 88 91 91 90
47 46 47 47 46 45 43 47 47 41 37 30 30 36 41 45 47 45 44 45 39 39 36 35 38 38 43 45 48 51 60 62 69 68 67 70 72 71 70 72 75 73 70 69 68 66 65 65 68 72 76 78 83 88
52 47 46 49 48 48 46 45 42 38 33 35 39 50 50 50 50 45 41 41 37 37 43 42 46 50 55 59 62 65 67 74 77 78 79 81 79 76 72 69 66 66 67 67 67 65 64 62 60 57 59 63 69 76
51 52 45 49 51 48 47 45 45 46 46 46 50 54 52 51 49 45 43 47 44 49 51 53 51 57 66 58 66 74 79 82 83 82 81 78 76 74 73 72 69 67 66 66 66 65 63 62 60 55 52 51 52 55
56 55 46 48 55 51 50 50 47 46 45 49 56 52 50 50 49 48 45 47 52 67 67 61 64 70 67 70 70 75 84 89 86 83 84 84 82 80 78 75 74 74 74 76 77 77 76 74 70 63 59 58 54 50
60 53 48 50 56 52 49 55 50 49 55 55 59 55 50 51 54 50 50 54 62 68 68 69 66 70 80 84 81 82 80 79 79 75 71 66 61 60 61 59 54 58 64 72 79 80 81 81 77 73 71 69 67 63
61 53 50 53 56 53 55 58 51 57 61 62 60 58 59 60 61 59 63 72 77 77 80 83 81 82 82 81 83 78 74 70 65 61 62 63 62 62 58 60 63 64 63 64 67 73 79 84 85 82 79 76 73 71
59 53 53 55 56 56 60 58 56 59 67 66 67 72 72 70 68 75 84 87 92 88 80 82 85 84 81 74 68 64 65 69 73 73 66 57 54 58 60 58 58 62 67 69 68 71 76 80 85 88 86 83 79 76
57 57 58 54 58 62 63 61 64 66 65 69 77 75 67 64 74 86 90 89 79 83 83 82 72 67 61 61 67 75 75 79 79 71 63 62 63 65 64 64 62 70 71 72 74 75 78 80 85 88 88 85 84 82
57 60 59 62 58 61 63 63 66 66 62 58 50 49 60 73 83 89 81 79 83 82 76 68 60 59 62 69 73 76 78 78 73 71 74 77 78 77 76 81 76 75 76 78 80 81 84 84 86 88 87 88 87 85
59 58 58 57 61 64 67 65 63 57 51 42 42 56 70 77 85 84 84 83 81 78 69 61 60 68 74 75 76 77 79 80 83 89 90 90 91 91 89 89 89 85 84 84 86 88 89 88 89 90 93 92 91 89
56 55 53 54 62 70 67 66 58 50 45 45 53 68 76 82 85 82 80 78 78 72 61 60 67 71 75 79 80 80 86 90 93 93 91 91 92 92 91 91 90 90 89 88 91 92 92 92 93 94 95 95 93 91
55 56 56 64 66 68 67 63 56 50 52 57 64 77 85 88 83 79 74 74 72 61 59 65 73 80 84 83 85 88 91 92 93 92 91 90 90 90 89 88 89 91 90 92 93 93 93 95 95 97 97 97 94 91
60 68 71 69 68 65 63 61 57 58 60 66 71 82 86 84 80 78 78 79 71 60 56 64 72 80 88 91 88 86 90 95 94 88 87 87 88 87 86 88 90 91 92 93 93 94 96 98 98 98 97 95 93 93
76 80 77 70 64 60 54 52 53 61 72 71 71 80 80 87 83 76 79 77 69 55 59 67 76 86 93 95 94 92 94 96 93 88 83 82 82 82 83 84 87 92 94 96 98 99 99 98 97 97 95 94 94 95
81 80 82 70 64 54 56 63 67 76 77 73 74 84 92 93 80 75 77 77 65 56 60 68 79 89 94 97 98 93 93 95 95 89 84 83 83 85 86 85 86 92 97 94 96 97 98 98 97 96 95 95 96 97
82 81 76 68 58 50 59 67 73 76 78 76 77 85 92 91 77 71 75 74 66 57 62 70 81 89 92 92 96 98 95 92 91 92 93 91 85 86 89 92 92 92 91 91 92 95 94 97 97 96 96 97 97 99
85 82 72 64 56 56 60 67 75 81 82 80 80 86 91 93 82 71 73 74 66 58 56 62 73 84 91 92 92 95 97 94 92 92 91 93 95 95 89 85 84 84 85 85 86 87 90 95 97 97 98 99 100 100
85 79 69 61 55 51 60 68 78 83 85 86 84 88 91 94 90 77 72 74 71 64 60 61 69 79 88 92 93 93 93 96 96 99 94 93 96 96 97 97 97 96 96 96 97 98 98 98 98 99 100 100 100 100
82 76 68 59 52 50 50 63 74 81 82 85 87 88 91 94 95 87 74 72 73 70 65 61 64 69 79 86 91 93 94 96 97 95 96 97 98 98 97 98 98 99 99 99 99 100 100 100 100 100 100 100 100 100
78 73 65 56 52 48 46 53 66 78 79 88 90 89 91 94 95 96 85 75 71 71 70 66 64 66 70 75 83 89 94 95 96 96 97 99 100 100 99 99 100 100 100 100 100 100 100 100 100 100 100 100 100 99